Waarnemingen

Advertentie
Mijn weer
Cap Corse, Frankrijk (7785): temperatuur & dauwpunt: 20.06.2019 10:00:00 - 26.06.2019 10:00:00 (CEST)Cap Corse, Frankrijk (7785): windsnelheid & windstoten: 20.06.2019 10:00:00 - 26.06.2019 10:00:00 (CEST)Cap Corse, Frankrijk (7785): windrichting: 20.06.2019 10:00:00 - 26.06.2019 10:00:00 (CEST)Cap Corse, Frankrijk (7785): luchtdruk: 20.06.2019 10:00:00 - 26.06.2019 10:00:00 (CEST)Cap Corse, Frankrijk (7785): zicht: 20.06.2019 10:00:00 - 26.06.2019 10:00:00 (CEST)Cap Corse, Frankrijk (7785): neerslag: 20.06.2019 10:00:00 - 26.06.2019 10:00:00 (CEST)
Datum & Tijd tt [°C] td [°C] ff [km/u] ff [kn] fx [km/u] fx [kn] dd ppp [hPa] vv [km] rr [mm]
26.06.2019 10:00:00 32,4 16,3 24 13 46 25 OZO 1021,5 - 0,0
26.06.2019 09:00:00 32,0 15,9 28 15 41 22 OZO 1021,4 - 0,0
26.06.2019 08:00:00 29,9 17,0 19 11 43 23 OZO 1021,3 18 0,0
26.06.2019 07:00:00 28,2 16,5 26 14 40 21 OZO 1021,2 - 0,0
26.06.2019 06:00:00 26,5 17,3 19 11 36 20 O 1021,2 - 0,0
26.06.2019 05:00:00 28,4 15,7 25 14 47 25 O 1020,9 - 0,0
26.06.2019 04:00:00 28,7 16,9 26 14 42 23 OZO 1020,8 - 0,0
26.06.2019 03:00:00 29,0 17,5 32 17 46 25 OZO 1021,0 - 0,0
26.06.2019 02:00:00 26,9 17,9 22 12 36 20 OZO 1021,3 - 0,0
26.06.2019 01:00:00 27,5 15,8 24 13 36 19 OZO 1021,3 - 0,0
26.06.2019 00:00:00 27,8 15,8 21 12 34 18 OZO 1021,3 - 0,0
25.06.2019 23:00:00 28,5 13,6 25 13 39 21 OZO 1020,8 - 0,0
25.06.2019 22:00:00 28,7 14,5 27 15 42 23 OZO 1020,2 - 0,0
25.06.2019 21:00:00 28,5 14,3 26 14 37 20 OZO 1019,8 - 0,0
25.06.2019 20:00:00 28,6 17,2 17 9 36 20 O 1019,5 - 0,0
25.06.2019 19:00:00 28,7 18,8 23 13 41 22 O 1019,1 - 0,0
25.06.2019 18:00:00 29,2 20,1 29 16 46 25 O 1019,1 - 0,0
25.06.2019 17:00:00 33,8 12,2 30 16 - - OZO 1019,1 18 -
25.06.2019 16:00:00 33,4 13,5 34 19 49 26 OZO 1019,3 - 0,0
25.06.2019 15:00:00 33,0 14,6 30 16 53 29 OZO 1019,5 - 0,0
25.06.2019 14:00:00 33,0 15,0 31 17 52 28 O 1019,6 18 0,0
25.06.2019 13:00:00 32,4 15,0 36 19 54 29 OZO 1019,8 - 0,0
25.06.2019 12:00:00 31,9 15,4 28 15 48 26 OZO 1020,1 - 0,0
25.06.2019 11:00:00 31,0 15,0 31 17 50 27 OZO 1020,1 15 0,0
25.06.2019 10:00:00 30,3 15,2 28 15 48 26 OZO 1020,1 - 0,0
25.06.2019 09:00:00 29,7 15,0 27 15 48 26 OZO 1020,1 - 0,0
25.06.2019 08:00:00 28,6 14,8 24 13 54 29 OZO 1019,6 15 0,0
25.06.2019 07:00:00 28,1 13,6 36 19 52 28 OZO 1018,9 - 0,0
25.06.2019 06:00:00 25,7 16,3 26 14 47 25 OZO 1018,6 - 0,0
25.06.2019 05:00:00 26,8 15,2 29 16 49 26 OZO 1018,1 15 0,0
25.06.2019 04:00:00 27,2 14,9 32 17 51 28 OZO 1018,3 - 0,0
25.06.2019 03:00:00 25,7 14,5 15 8 38 21 OZO 1018,7 - 0,0
25.06.2019 02:00:00 26,4 14,2 26 14 39 21 OZO 1018,6 - 0,0
25.06.2019 01:00:00 26,1 15,8 22 12 41 22 O 1018,8 - 0,0
25.06.2019 00:00:00 25,9 16,2 25 13 41 22 OZO 1018,8 - 0,0
24.06.2019 23:00:00 24,8 16,8 27 15 39 21 OZO 1018,8 - 0,0
24.06.2019 22:00:00 24,3 18,5 26 14 41 22 OZO 1018,3 - 0,0
24.06.2019 21:00:00 25,1 20,1 23 12 35 19 OZO 1017,6 - 0,0
24.06.2019 20:00:00 26,3 20,6 22 12 36 19 O 1017,2 15 0,0
24.06.2019 19:00:00 28,9 18,7 21 11 40 22 O 1016,9 - 0,0
24.06.2019 18:00:00 29,2 18,6 22 12 41 22 O 1017,0 - 0,0
24.06.2019 17:00:00 31,5 15,9 24 13 43 23 OZO 1016,9 15 0,0
24.06.2019 16:00:00 28,5 19,4 31 17 50 27 O 1016,8 - 0,0
24.06.2019 15:00:00 25,8 22,3 33 18 45 25 O 1016,5 - 0,0
24.06.2019 14:00:00 25,7 22,0 24 13 34 19 O 1017,4 15 0,0
24.06.2019 13:00:00 25,4 21,3 21 11 39 21 O 1017,9 - 0,0
24.06.2019 12:00:00 25,4 21,1 25 13 42 23 O 1017,5 - 0,0
24.06.2019 11:00:00 26,1 19,0 29 15 44 24 O 1017,4 15 0,0
24.06.2019 10:00:00 26,6 17,9 27 15 39 21 O 1017,7 - 0,0
24.06.2019 09:00:00 26,5 17,6 18 10 28 15 O 1017,7 - 0,0
24.06.2019 08:00:00 26,5 14,6 14 7 25 14 O 1017,6 15 0,0
24.06.2019 07:00:00 24,4 12,7 18 10 31 17 OZO 1017,3 - 0,0
24.06.2019 06:00:00 22,7 10,5 19 10 29 15 OZO 1017,5 - 0,0
24.06.2019 05:00:00 20,3 11,8 10 5 13 7 O 1017,5 15 0,0
24.06.2019 04:00:00 20,2 12,9 6 3 19 10 WNW 1017,5 - 0,0
24.06.2019 03:00:00 19,9 16,7 16 9 21 11 W 1017,7 - 0,0
24.06.2019 02:00:00 19,5 17,8 10 5 14 7 W 1018,0 - 0,0
24.06.2019 01:00:00 20,0 18,8 4 2 10 5 NW 1018,0 - 0,0
24.06.2019 00:00:00 20,4 19,1 4 2 9 5 O 1017,7 - 0,0
23.06.2019 23:00:00 20,8 18,4 4 2 18 10 WNW 1017,2 - 0,0
23.06.2019 22:00:00 21,9 18,9 16 9 28 15 W 1016,5 - 0,0
23.06.2019 21:00:00 22,5 17,2 22 12 30 16 W 1015,8 - 0,0
23.06.2019 20:00:00 23,4 17,2 14 8 19 11 W 1015,8 15 0,0
23.06.2019 19:00:00 24,4 16,9 10 6 25 13 W 1015,8 - 0,0
23.06.2019 18:00:00 25,0 18,0 19 10 29 16 W 1015,8 - 0,0
23.06.2019 17:00:00 26,0 18,4 20 11 35 19 W 1015,9 15 0,0
23.06.2019 16:00:00 26,4 15,1 18 10 37 20 W 1016,1 - 0,0
23.06.2019 15:00:00 26,0 18,4 24 13 40 22 WZW 1016,3 - 0,0
23.06.2019 14:00:00 26,6 17,1 19 10 29 16 W 1016,4 - 0,0
23.06.2019 13:00:00 25,8 20,1 19 10 31 17 W 1016,0 - 0,0
23.06.2019 12:00:00 26,7 18,0 17 9 38 20 W 1015,9 - 0,0
23.06.2019 11:00:00 25,8 19,2 17 9 31 17 W 1015,5 15 0,0
23.06.2019 10:00:00 24,3 19,1 12 6 40 22 WZW 1015,0 - 0,0
23.06.2019 09:00:00 23,4 19,5 21 11 46 25 WZW 1014,8 - 0,0
23.06.2019 08:00:00 22,9 19,7 18 10 38 21 WZW 1014,7 13 0,0
23.06.2019 07:00:00 21,7 19,6 25 13 46 25 WZW 1014,6 - 0,0
23.06.2019 06:00:00 21,2 19,7 28 15 43 23 WZW 1014,4 - 0,0
23.06.2019 05:00:00 21,0 19,3 29 15 43 23 WZW 1014,3 13 0,0
23.06.2019 04:00:00 21,2 19,5 27 14 55 30 WZW 1014,0 - 0,0
23.06.2019 03:00:00 21,8 19,5 24 13 54 29 WZW 1013,8 - 0,0
23.06.2019 02:00:00 21,4 17,8 27 15 54 29 ZZW 1014,1 - 0,0
23.06.2019 01:00:00 21,7 20,2 26 14 49 27 WZW 1014,5 - 0,0
23.06.2019 00:00:00 21,9 20,2 32 18 55 30 WZW 1014,3 - 0,0
22.06.2019 23:00:00 21,9 20,0 31 17 54 29 ZW 1013,9 - 0,0
22.06.2019 22:00:00 22,2 20,1 29 16 50 27 WZW 1014,0 - 0,0
22.06.2019 21:00:00 22,4 20,3 34 19 59 32 WZW 1013,1 - 0,0
22.06.2019 20:00:00 22,6 19,4 31 17 61 33 WZW 1012,3 15 0,0
22.06.2019 19:00:00 23,8 20,3 34 19 60 32 WZW 1012,3 - 0,0
22.06.2019 18:00:00 24,8 20,5 35 19 54 29 W 1012,4 - 0,0
22.06.2019 17:00:00 26,3 18,9 21 12 45 25 WZW 1012,9 15 0,0
22.06.2019 16:00:00 26,5 18,1 21 11 38 20 WZW 1012,7 - 0,0
22.06.2019 15:00:00 26,6 19,2 16 9 26 14 WZW 1013,3 - 0,0
22.06.2019 14:00:00 26,5 20,3 16 9 21 11 W 1013,6 15 0,0
22.06.2019 13:00:00 26,3 18,9 7 4 14 8 NNO 1013,8 - 0,0
22.06.2019 12:00:00 26,1 19,0 11 6 13 7 W 1013,6 - 0,0
22.06.2019 11:00:00 26,3 18,2 4 2 17 9 NW 1013,5 - 0,0
22.06.2019 10:00:00 25,0 18,2 13 7 27 14 W 1013,4 - 0,0
22.06.2019 09:00:00 26,0 18,7 11 6 21 11 W 1013,1 - 0,0
22.06.2019 08:00:00 24,7 19,3 9 5 19 10 WZW 1012,5 15 0,0
22.06.2019 07:00:00 23,9 18,5 14 8 32 17 Z 1012,3 - 0,0
22.06.2019 06:00:00 23,0 19,2 30 16 45 25 ZZO 1012,4 - 0,0
22.06.2019 05:00:00 22,6 19,4 16 9 38 21 ZO 1011,9 10 0,0
22.06.2019 04:00:00 23,5 18,8 23 12 35 19 ZO 1012,6 - 0,0
22.06.2019 03:00:00 23,8 18,7 12 6 - - WNW 1012,4 - 0,0
22.06.2019 02:00:00 24,4 14,2 21 12 29 16 ZO 1013,0 - 0,0
22.06.2019 01:00:00 24,1 13,0 14 7 25 13 O 1013,7 - 0,0
22.06.2019 00:00:00 23,1 17,3 6 4 26 14 W 1013,8 - 0,0
21.06.2019 23:00:00 22,9 19,1 10 5 19 10 O 1013,5 - 0,0
21.06.2019 22:00:00 23,6 19,3 6 4 11 6 W 1013,7 - 0,0
21.06.2019 21:00:00 24,0 19,7 8 4 18 10 O 1013,0 - 0,0
21.06.2019 20:00:00 25,1 20,4 7 4 21 12 ONO 1013,1 - 0,0
21.06.2019 19:00:00 26,7 20,3 5 3 27 15 W 1012,4 - 0,0
21.06.2019 18:00:00 27,4 19,7 5 3 38 21 W 1011,8 - 0,0
21.06.2019 17:00:00 27,3 20,6 23 12 35 19 ZO 1012,6 15 0,0
21.06.2019 16:00:00 28,1 19,9 6 4 22 12 W 1013,8 - 0,0
21.06.2019 15:00:00 29,7 21,4 8 5 37 20 ZZW 1013,9 - 0,0
21.06.2019 14:00:00 29,5 17,0 11 6 34 19 W 1013,3 15 0,0
21.06.2019 13:00:00 28,4 19,3 10 6 52 28 W 1013,5 - 0,0
21.06.2019 12:00:00 28,6 20,3 33 18 50 27 ZO 1013,1 - 0,0
21.06.2019 11:00:00 28,0 19,5 32 17 49 27 ZO 1013,1 15 0,0
21.06.2019 10:00:00 28,2 18,3 16 9 46 25 ZO 1013,8 - 0,0
21.06.2019 09:00:00 26,3 17,6 32 17 46 25 OZO 1014,0 - 0,0
21.06.2019 08:00:00 25,0 18,7 21 11 33 18 OZO 1013,8 15 0,0
21.06.2019 07:00:00 23,3 14,8 12 7 35 19 ZO 1013,7 - 0,0
21.06.2019 06:00:00 20,6 14,0 5 3 17 9 ZW 1014,0 - 0,0
21.06.2019 05:00:00 20,0 15,6 6 3 19 11 NW 1014,0 15 0,0
21.06.2019 04:00:00 21,3 16,5 13 7 27 15 ZZO 1014,0 - 0,0
21.06.2019 03:00:00 20,2 15,0 5 3 7 4 O 1014,5 - 0,0
21.06.2019 02:00:00 21,0 16,2 3 2 11 6 W 1014,9 - 0,0
21.06.2019 01:00:00 20,5 16,9 9 5 16 8 WZW 1014,6 - 0,0
21.06.2019 00:00:00 21,6 16,3 7 4 10 5 ONO 1014,7 - 0,0
20.06.2019 23:00:00 21,4 15,2 2 1 9 5 ZW 1014,3 - 0,0
20.06.2019 22:00:00 22,4 15,7 3 2 7 4 O 1014,0 - 0,0
20.06.2019 21:00:00 23,0 17,0 4 2 16 9 WZW 1013,3 - 0,0
20.06.2019 20:00:00 25,3 16,2 12 7 31 17 OZO 1012,9 15 0,0
20.06.2019 19:00:00 25,7 15,7 15 8 28 15 O 1013,0 - 0,0
20.06.2019 18:00:00 24,4 20,7 16 9 26 14 ONO 1013,3 - 0,0
20.06.2019 17:00:00 24,8 20,9 20 11 29 16 ONO 1013,6 15 0,0
20.06.2019 16:00:00 25,6 20,6 23 12 29 15 ONO 1013,7 - 0,0
20.06.2019 15:00:00 26,3 20,4 15 8 23 13 ONO 1013,8 - 0,0
20.06.2019 14:00:00 27,1 14,8 4 2 17 9 NNW 1014,3 - 0,0
20.06.2019 13:00:00 25,3 19,7 10 5 22 12 W 1014,5 - 0,0
20.06.2019 12:00:00 28,7 10,8 14 8 21 11 WZW 1014,3 - 0,0
20.06.2019 11:00:00 27,7 15,7 6 3 17 9 NNW 1014,0 - 0,0
20.06.2019 10:00:00 27,2 17,1 9 5 27 15 O 1013,7 - 0,0

tt = temperatuur
td = dauwpunt
ff = windsnelheid
fx = windstoten
dd = windrichting
ppp = luchtdruk
vv = zicht
rr = neerslag

Weerstations in de omgeving